Location: Brachstadt
(48.6975°N, 10.6755°E)
Time: 05:59:44
(UTC+00:00)

CZ-2C R/B - Pass Details

Date: 18 September 2020
Orbit: 704 x 907 km, 98.1° (Epoch: 22 October)

Event Time Altitude Azimuth Distance (km) Brightness Sun altitude
Rises 17:56:39 0° 161° (SSE) 3,247 6.0 -6.4°
Reaches altitude 10° 17:58:53 10° 161° (SSE) 2,352 5.2 -6.7°
Maximum altitude 18:04:07 82° 74° (ENE) 839 3.2 -7.6°
Drops below altitude 10° 18:09:41 10° 348° (NNW) 2,503 6.0 -8.5°
Sets 18:12:08 0° 347° (NNW) 3,470 6.8 -8.9°
